Погода в Каменске

Россия / Иркутская область     56°10′24″N   99°07′18″E
темп.,
°C
ветер,
м/с
пор.,
м/с
влажн.,
%
обл.,
%
осадки,
мм/ч
давл.,
гПа
погр.,
м
12 августа, пт
пт1223:00+13ююз118826 0.0 101110
02:00+14ю1182100 0.0 101013
05:00+12ююз1187100 0.0 101013
08:00+15зюз117799 0.0 1010123
11:00+20з23643 0.3 1009647
14:00+20зсз347998 2.1 1008921
17:00+22ссз355485 0.7 10081628
20:00+18св126999 0.8 100837
13 августа, сб
сб1323:00+13с00916 0.0 101010
02:00+11вюв11956 0.0 101010
05:00+10в119699 0.0 100910
08:00+13вюв11857 0.0 1010132
11:00+20вюв215435 0.1 1008865
14:00+21св124398 0.2 10071651
17:00+21всв224545 0.0 1006833
20:00+18в226190 0.0 100646
14 августа, вс
вс1423:00+13всв11755 0.0 100611
02:00+11в1182100 0.0 100612
05:00+10вюв11839 0.0 100512
08:00+14вюв136973 0.0 1005174
11:00+20юз245889 0.0 1004971
14:00+15зюз2593100 1.2 1005294
17:00+16ююз2493100 0.2 1004155
20:00+15юз289745 2.0 1004296
15 августа, пн
пн1523:00+13ююз289894 0.6 1004219
02:00+13ююз2698100 1.0 1003154
05:00+13юз41296100 0.3 1002604
08:00+13зюз41293100 0.3 1003823
11:00+15зюз6128599 0.8 10031284
14:00+15з6127278 1.9 10041548
17:00+17з6115355 0.1 10041913
20:00+14з4106811 0.4 10061311
16 августа, вт
вт1623:00+10зюз399025 0.1 1008262
02:00+7юз269357 0.1 1008136
05:00+6юз26955 0.0 1009140
08:00+9зюз27797 0.0 1008292
11:00+13зюз376499 0.0 1007904
14:00+12зюз477977 0.7 1007744
17:00+15з576335 0.4 10071336
20:00+11з388578 1.3 1008280